FW6403 Weather Reports


time (UTC)temp
C
wind
direction
speed
KPH
gust
KPH
rain 1hr
cm
rain 24hr
cm
rain mn
cm
humidity
%
barometer
mb
20260507054606 13 287 0.0 3.2 0.00 0.00 0.00 74 1013.1
20260507053107 12 0 0.0 0.0 0.00 0.00 0.00 77 1012.9
20260507051606 11 0 0.0 0.0 0.00 0.00 0.00 81 1012.7
20260507050055 10 0 0.0 0.0 0.00 0.00 0.00 82 1012.5
20260507044559 10 0 0.0 0.0 0.00 0.00 0.00 82 1012.2
20260507043059 10 0 0.0 0.0 0.00 0.00 0.00 82 1012.0
20260507041556 10 0 0.0 0.0 0.00 0.00 0.00 81 1011.9
20260507040058 10 0 0.0 0.0 0.00 0.00 0.00 80 1011.8
20260507034555 11 0 0.0 0.0 0.00 0.00 0.00 79 1011.7
20260507033057 11 0 0.0 0.0 0.00 0.00 0.00 79 1011.6
20260507031555 11 0 0.0 0.0 0.00 0.00 0.00 78 1011.5
20260507030056 11 0 0.0 0.0 0.00 0.00 0.00 79 1011.6
20260507024555 11 0 0.0 0.0 0.00 0.00 0.00 78 1011.5
20260507023055 11 0 0.0 0.0 0.00 0.00 0.00 79 1011.7
20260507021556 11 0 0.0 0.0 0.00 0.00 0.00 78 1011.7
20260507020118 11 0 0.0 0.0 0.00 0.00 0.00 79 1011.7
20260507014601 11 0 0.0 0.0 0.00 0.00 0.00 78 1011.7
20260507013057 11 0 0.0 3.2 0.00 0.00 0.00 78 1011.6
20260507011557 11 0 0.0 0.0 0.00 0.00 0.00 78 1011.6
20260507010110 11 0 0.0 0.0 0.00 0.00 0.00 77 1011.5
20260507004557 12 0 0.0 0.0 0.00 0.00 0.00 77 1011.3
20260507003054 12 0 0.0 0.0 0.00 0.00 0.00 76 1011.2
20260507001605 12 0 0.0 0.0 0.00 0.00 0.00 76 1011.2
20260507000059 12 360 0.0 1.6 0.00 0.00 0.00 76 1011.3
20260506234600 12 0 0.0 0.0 0.00 0.00 0.00 75 1011.1
20260506233100 12 0 0.0 0.0 0.00 0.00 0.00 74 1011.2
20260506231610 13 0 0.0 0.0 0.00 0.00 0.00 74 1011.1
20260506230126 13 0 0.0 0.0 0.00 0.00 0.00 72 1011.2
20260506224603 13 0 0.0 1.6 0.00 0.00 0.00 71 1011.2
20260506223103 13 0 0.0 0.0 0.00 0.00 0.00 70 1011.0
20260506221631 14 0 0.0 0.0 0.00 0.00 0.00 70 1011.1
20260506220124 14 0 0.0 4.8 0.00 0.00 0.00 70 1011.2
20260506214600 14 0 0.0 3.2 0.00 0.00 0.00 70 1011.3
20260506213110 14 0 0.0 3.2 0.00 0.00 0.00 70 1011.1
20260506211600 15 360 0.0 0.0 0.00 0.00 0.00 70 1011.2
20260506210106 15 0 0.0 0.0 0.00 0.00 0.00 68 1011.1
20260506204607 15 360 0.0 3.2 0.00 0.00 0.00 68 1011.1
20260506203058 16 0 0.0 3.2 0.00 0.00 0.00 66 1010.8
20260506201558 16 0 0.0 3.2 0.00 0.00 0.00 63 1010.8
20260506200057 17 0 0.0 4.8 0.00 0.00 0.00 62 1010.5
20260506194559 17 277 1.6 6.4 0.00 0.00 0.00 55 1010.1
20260506193104 17 0 1.6 12.9 0.00 0.00 0.00 54 1009.8
20260506191619 17 178 1.6 8.0 0.00 0.00 0.00 55 1009.4
20260506190058 18 0 0.0 3.2 0.00 0.00 0.00 57 1009.2
20260506184627 18 0 0.0 3.2 0.00 0.00 0.00 54 1009.0
20260506183104 19 175 0.0 3.2 0.00 0.00 0.00 54 1008.8
20260506181600 20 0 0.0 4.8 0.00 0.00 0.00 52 1008.7
20260506180058 20 187 1.6 8.0 0.00 0.00 0.00 50 1008.4
20260506174557 20 207 1.6 8.0 0.00 0.00 0.00 50 1008.3
20260506173100 21 0 1.6 11.3 0.00 0.00 0.00 49 1008.2
20260506171612 21 136 3.2 11.3 0.00 0.00 0.00 49 1008.2
20260506170100 21 198 3.2 12.9 0.00 0.00 0.00 49 1008.0
20260506164555 21 169 3.2 14.5 0.00 0.03 0.00 49 1008.1
20260506163107 21 0 3.2 14.5 0.00 0.03 0.00 49 1008.0
20260506161557 21 167 3.2 12.9 0.00 0.03 0.00 49 1007.9
20260506160109 21 326 4.8 20.9 0.00 0.03 0.00 50 1007.9
20260506154558 21 217 3.2 12.9 0.00 0.03 0.00 52 1007.9
20260506153057 22 360 3.2 16.1 0.00 0.03 0.00 52 1008.0
20260506151557 22 360 3.2 16.1 0.00 0.03 0.00 55 1007.9
20260506150057 22 360 3.2 16.1 0.00 0.03 0.00 52 1007.9
20260506144603 23 360 1.6 9.7 0.00 0.05 0.00 58 1008.0
20260506143056 23 360 1.6 9.7 0.00 0.05 0.00 62 1008.0
20260506141557 23 360 1.6 6.4 0.00 0.05 0.00 62 1008.3
20260506140101 22 360 1.6 6.4 0.00 0.05 0.00 67 1008.2
20260506134556 22 360 1.6 9.7 0.00 0.08 0.00 73 1008.3
20260506133054 22 360 1.6 9.7 0.00 0.08 0.00 70 1008.4
20260506131607 22 0 0.0 8.0 0.00 0.08 0.00 72 1008.5
20260506130057 22 360 3.2 12.9 0.00 0.08 0.00 71 1008.5
20260506124556 21 89 1.6 11.3 0.00 0.08 0.00 77 1008.7
20260506123058 21 39 1.6 12.9 0.00 0.08 0.00 79 1008.8
20260506121600 20 118 3.2 11.3 0.00 0.08 0.00 83 1008.7
20260506114556 18 117 0.0 11.3 0.00 0.13 0.00 90 1008.9
20260506113104 18 114 1.6 14.5 0.00 0.13 0.00 92 1008.9
20260506111557 17 167 3.2 14.5 0.00 0.13 0.00 93 1009.1
20260506110058 17 108 3.2 12.9 0.00 0.13 0.00 93 1009.1
20260506104607 17 76 3.2 11.3 0.00 0.18 0.00 92 1009.2
20260506103056 17 88 1.6 9.7 0.00 0.18 0.00 89 1009.6
20260506101557 17 99 3.2 11.3 0.00 0.18 0.00 85 1009.8
20260506100114 18 81 3.2 11.3 0.00 0.18 0.00 83 1009.6
20260506094600 17 47 3.2 12.9 0.00 0.23 0.00 85 1009.6
20260506093104 17 120 3.2 11.3 0.00 0.23 0.00 86 1009.5
20260506091603 17 83 4.8 14.5 0.00 0.23 0.00 85 1009.6
20260506090100 17 115 4.8 12.9 0.00 0.23 0.00 85 1009.5
20260506084604 17 95 1.6 11.3 0.00 0.30 0.00 87 1009.4
20260506083110 17 69 1.6 12.9 0.00 0.30 0.00 88 1009.3
20260506081558 16 75 1.6 11.3 0.00 0.30 0.00 92 1009.4
20260506073057 15 360 1.6 8.0 0.00 0.43 0.00 95 1009.6
20260506071559 15 360 1.6 14.5 0.00 0.43 0.00 96 1009.5
20260506061556 15 360 1.6 6.4 0.00 0.48 0.00 97 1010.1